Regional Weather Roundup
Issued by NWS

Home | Current Version | Previous Version | Graphics & Text | Print | Product List | Glossary On
Versions: 1 2 3 4 5 6 7 8 9 10 11 12 13 14 15 16 17 18 19 20 21 22 23 24 25 26 27 28 29 30 31 32 33 34 35 36 37 38 39 40 41 42 43 44 45 46 47 48 49 50
663
ASUS43 KMKX 091100
RWRWI

WISCONSIN REGIONAL WEATHER ROUNDUP
NATIONAL WEATHER SERVICE MILWAUKEE/SULLIVAN WI
500 AM CST FRI DEC 09 2016

NOTE: "FAIR" INDICATES FEW OR NO CLOUDS BELOW 12,000 FEET WITH NO
SIGNIFICANT WEATHER AND/OR OBSTRUCTIONS TO VISIBILITY.

WIZ001-002-006>008-014>016-023>028-091200-
NORTHWEST WISCONSIN

CITY           SKY/WX    TMP DP  RH WIND       PRES   REMARKS
SUPERIOR ARPT  CLOUDY    15   8  73 NW6       30.51S WCI   7
ASHLAND        LGT SNOW  16  13  88 W7        30.47S FOG     WCI   6
HAYWARD        CLOUDY    12   5  73 VRB3      30.46R
SIREN          CLOUDY    11   8  88 CALM      30.50S
CUMBERLAND     PTCLDY     7   3  85 W6        30.47S WCI  -3
RICE LAKE      CLEAR     10   8  88 CALM      30.50S
CHETEK         CLEAR     11   8  87 NW3       30.49S
LADYSMITH      CLEAR     12   8  82 NW9       30.47R WCI   0
EAU CLAIRE     NOT AVBL
MENOMONIE      CLEAR     14  10  85 W6        30.52R WCI   5
NEW RICHMOND   CLOUDY    12   9  88 W6        30.51S WCI   2
OSCEOLA        CLOUDY    14  11  87 W5        30.55S WCI   6
$$

WIZ003>005-009-010-017-018-091200-
NORTH CENTRAL WISCONSIN

CITY           SKY/WX    TMP DP  RH WIND       PRES   REMARKS
MANITOWISH WTR CLOUDY    12   9  88 W7        30.36R WCI   2
ARBOR VITAE    CLOUDY    17  11  79 NW6       30.36R WCI   8
WOODRUFF       CLOUDY    17  11  79 NW6       30.36R WCI   8
RHINELANDER    CLOUDY    15   9  76 NW9       30.36R WCI   3
EAGLE RIVER    FLURRIES  15  10  80 NW6       30.34S WCI   7
LAND O LAKES   PTCLDY    14  10  84 W6        30.34S WCI   5
PHILLIPS       CLOUDY    13  10  85 CALM      30.39S
TOMAHAWK       PTCLDY    12   7  79 NW8       30.39S WCI   1
MEDFORD        CLOUDY    15  10  81 W8        30.40R WCI   4
MERRILL        CLOUDY    16   8  70 NW9       30.41R WCI   4
$$

WIZ029-030-035-036-043>047-091200-
CENTRAL WISCONSIN

CITY           SKY/WX    TMP DP  RH WIND       PRES   REMARKS
WAUSAU         CLOUDY    17   8  67 NW9       30.40R WCI   6
MOSINEE        CLOUDY    18  14  86 NW8       30.41R WCI   7
MARSHFIELD     MOCLDY    13   8  81 NW12      30.42R WCI  -1
STEVENS POINT  FLURRIES  18  12  77 NW7       30.42S WCI   8
WAUPACA        CLOUDY    23  15  71 W3        30.42S
WAUTOMA        CLEAR     17  12  80 NW10      30.44S WCI   5
WISC RAPIDS    CLOUDY    17  11  77 NW10      30.45R WCI   5
CAMP DOUGLAS   PTCLDY    19  10  68 NW10      30.46R WCI   8
$$

WIZ011>013-019>022-031-037>040-048>050-091200-
NORTHEAST WISCONSIN

CITY           SKY/WX    TMP DP  RH WIND       PRES   REMARKS
ANTIGO         CLOUDY    16  11  78 NW10      30.36R WCI   4
SHAWANO        CLOUDY    22  15  75 W6        30.40R WCI  14
OCONTO         CLEAR     19   8  64 NW5       30.39R WCI  12
STURGEON BAY   PTCLDY    21  11  65 NW15G22   30.37R WCI   8
GREEN BAY      CLOUDY    22  16  78 W9        30.40R WCI  12
MANITOWOC      NOT AVBL
APPLETON       NOT AVBL
CLINTONVILLE   CLOUDY    21  14  73 NW10      30.41R WCI  10
OSHKOSH        PTCLDY    18  11  74 W7        30.41R WCI   9
$$

WIZ032>034-041-042-053>061-091200-
SOUTHWEST WISCONSIN

CITY           SKY/WX    TMP DP  RH WIND       PRES   REMARKS
LA CROSSE      CLOUDY    22  13  68 NW10      30.52R WCI  11
SPARTA         PTCLDY    18  13  80 NW9       30.50R WCI   7
VIROQUA        CLOUDY    18  15  90 W8        30.46R WCI   7
BOSCOBEL       CLOUDY    21  14  74 W6        30.52S WCI  13
PRAIRIE DU CHI CLEAR     18  11  75 NW6       30.53F WCI   9
PLATTEVILLE    CLOUDY    19  17  90 W7        30.49S WCI  10
$$

WIZ056-057-062-063-064-067-068-091200-
SOUTH CENTRAL WISCONSIN

CITY           SKY/WX    TMP DP  RH WIND       PRES   REMARKS
REEDSBURG      CLOUDY    21  12  69 NW12      30.46S WCI   9
BARABOO/DELLS  CLOUDY    20  12  69 NW7       30.45R WCI  12
LONE ROCK      NOT AVBL
MINERAL POINT  FLURRIES  21  19  93 W9        30.46R WCI  11
MADISON        PTCLDY    20  13  74 W5        30.45S WCI  13
MIDDLETON      CLOUDY    24  15  71 NW13      30.46R WCI  12
WATERTOWN      CLEAR     20  16  84 W7        30.44R WCI  11
MONROE         FLURRIES  21  18  86 W7        30.45S WCI  13
JANESVILLE     FLURRIES  25  19  80 W13       30.45S WCI  13
$$

WIZ051-052-058>065-066-070>072-091200-
SOUTHEAST WISCONSIN

CITY           SKY/WX    TMP DP  RH WIND       PRES   REMARKS
MILWAUKEE      CLEAR     23  15  71 NW10      30.43R WCI  12
WAUKESHA       CLEAR     19  16  86 W10       30.43S WCI   8
MILWAUKEE/TIMM CLEAR     19  14  79 W7        30.44R WCI  10
RACINE         CLEAR     21  14  74 W7        30.45R WCI  12
BURLINGTON     MOCLDY    25  22  89 CALM      30.44R
KENOSHA        PTCLDY    20  16  84 W10       30.43S WCI   9
FOND DU LAC    MOCLDY    19  11  70 W10       30.42R WCI   7
SHEBOYGAN      CLEAR     20  13  74 NW7       30.40R WCI  11
WEST BEND      CLEAR     19  16  86 W8        30.41R WCI   9
JUNEAU         CLEAR     19  15  84 W8        30.44R WCI   9
$$

LSZ147-162-091200-
LAKE SUPERIOR

STATION/POSITION TIME  TEMP    WIND        PRES    WAVE
                       AIR SEA DIR/SP/G            HT/PER
                 (UTC) (F)     (DEG/KT/KT) (MB)    (FT/S)
DEVILS ISLAND    1000   19     300/ 18/ 22 1032.3R
PORT WING        1030   18     320/ 10/ 17 1032.2S
SAXON HARBOR     1040   21     300/ 15/ 21 1030.5F
$$

LMZ867-665-643>646-091200-
LAKE MICHIGAN

STATION/POSITION TIME  TEMP    WIND        PRES    WAVE
                       AIR SEA DIR/SP/G            HT/PER
                 (UTC) (F)     (DEG/KT/KT) (MB)    (FT/S)
CHAMBERS ISLAND  1040   22     310/ 12/ 18 1027.4S
NORTHPORT PIER   1040   24     290/ 16/ 23 1027.4R
SISTER BAY       1020   23     320/ 23/ 28   N/A
ALGOMA LAKESHORE 0921          320/ 10/ 13   N/A
KEWAUNEE LAKESHO 1030   20     310/  3/  5 1028.0R
SHEBOYGAN LAKESH 1000   22     290/ 11/ 15 1030.1R
PORT WASHINGTON  1030   22     300/  6/ 10 1030.8R
MILWAUKEE LAKESH 1030   22     290/ 10/ 11   N/A
KENOSHA   LAKESH 1000   22     290/ 10/ 16 1030.1
$$

TC  - TEMPERATURE IN CELSIUS
VSB - VISIBILITY IN STATUTE MILES
WCI - WIND CHILL INDEX
HX  - HEAT INDEX





USA.gov is the U.S. government's official web portal to all federal, state and local government web resources and services.